La Vinya d'en Daniel





Hora UTC 16:45
Temperatura 9.1 ºC
Humitat 87.0 %
Pressió 1034.3 hPa
Pluja 0.0 mm
Velocitat vent 0.0 km/h
Direcció vent N

Dades diàries 2022-01-25



Hora UTC (hivern +1h; estiu +2h)
Temperatura (ºC) Humitat (%) Pressió (hPa) Velocitat vent (km/h) Precipitació (mm)
Hora UTC Aire Humitat Pressió Vel. Dir. Vel. Max Dir. Intent. màx 5 min.
00:05 1.1 94.0 1034.4 0.0 WNW 0.0 0.0
00:10 0.9 94.0 1034.3 0.0 WNW 0.0 0.0
00:15 1.0 94.0 1034.3 0.0 WNW 0.0 0.0
00:20 1.1 94.0 1034.2 0.0 WNW 0.0 0.0
00:25 1.0 94.0 1034.3 0.0 WNW 0.0 0.0
00:30 0.9 94.0 1034.3 0.0 WNW 0.0 0.0
00:35 1.1 94.0 1034.3 0.0 WNW 0.0 0.0
00:40 1.0 94.0 1034.4 0.0 WNW 0.0 0.0
00:45 1.0 94.0 1034.4 0.0 WNW 0.0 0.0
00:50 0.9 94.0 1034.3 0.0 WNW 0.0 0.0
00:55 0.9 94.0 1034.3 0.0 WNW 0.0 0.0
01:00 0.8 94.0 1034.4 0.0 NW 0.0 0.0
01:05 0.9 94.0 1034.4 0.0 NW 0.0 0.0
01:10 0.9 94.0 1034.4 0.0 NW 0.0 0.0
01:15 0.8 94.0 1034.4 0.0 NNW 0.0 0.0
01:20 0.8 94.0 1034.4 0.0 NNE 0.0 0.0
01:25 0.8 94.0 1034.4 0.0 NNE 0.0 0.0
01:30 0.8 94.0 1034.5 0.0 NNE 0.0 0.0
01:35 0.9 95.0 1034.6 0.0 NNE 0.0 0.0
01:40 0.8 95.0 1034.6 0.0 NNE 0.0 0.0
01:45 0.7 95.0 1034.4 0.0 NNE 0.0 0.0
01:50 0.6 95.0 1034.5 0.0 NNE 0.0 0.0
01:55 0.5 95.0 1034.5 0.0 NNE 0.0 0.0
02:00 0.6 95.0 1034.6 0.0 NNE 0.0 0.0
02:05 0.6 95.0 1034.5 0.0 NNW 0.0 0.0
02:10 0.6 95.0 1034.5 0.0 NNW 0.0 0.0
02:15 0.2 95.0 1034.5 0.0 NNW 0.0 0.0
02:20 2.8 88.0 1034.4 1.6 W 6.4 0.0
02:25 2.8 88.0 1034.5 0.0 W 6.4 0.0
02:30 2.8 88.0 1034.4 0.0 WNW 6.4 0.0
02:35 2.7 88.0 1034.5 0.0 W 6.4 0.0
02:40 2.7 88.0 1034.3 0.0 WNW 6.4 0.0
02:45 2.7 88.0 1034.4 0.0 NW 6.4 0.0
02:50 2.7 88.0 1034.4 0.0 NW 0.0 0.0
02:55 2.6 87.0 1034.4 0.0 NNW 3.2 0.0
03:00 2.5 88.0 1034.4 0.0 NNW 3.2 0.0
03:05 2.3 88.0 1034.4 0.0 WNW 0.0 0.0
03:10 2.0 88.0 1034.3 6.4 W 11.3 0.0
03:15 1.8 89.0 1034.3 4.8 W 12.9 0.0
03:20 1.7 89.0 1034.3 0.0 NW 12.9 0.0
03:25 1.7 90.0 1034.3 0.0 NW 1.6 0.0
03:30 1.9 90.0 1034.3 3.2 W 6.4 0.0
03:35 1.9 89.0 1034.2 4.8 W 8.0 0.0
03:40 1.8 89.0 1034.2 4.8 WNW 8.0 0.0
03:45 1.7 89.0 1034.3 4.8 W 11.3 0.0
03:50 1.8 90.0 1034.3 1.6 WNW 12.9 0.0
03:55 2.1 89.0 1034.2 0.0 NW 12.9 0.0
04:00 2.1 89.0 1034.3 1.6 WNW 4.8 0.0
04:05 2.1 89.0 1034.3 0.0 WNW 9.7 0.0
04:10 1.8 88.0 1034.3 0.0 WNW 9.7 0.0
04:15 1.8 89.0 1034.3 0.0 NW 0.0 0.0
04:20 1.9 89.0 1034.2 6.4 NW 12.9 0.0
04:25 2.1 89.0 1034.4 1.6 NW 12.9 0.0
04:30 2.2 89.0 1034.2 0.0 WNW 8.0 0.0
04:35 2.3 88.0 1034.3 0.0 WNW 6.4 0.0
04:40 2.2 88.0 1034.3 0.0 WNW 0.0 0.0
04:45 2.2 89.0 1034.3 0.0 WNW 8.0 0.0
04:50 2.2 88.0 1034.3 6.4 NW 16.1 0.0
04:55 2.1 88.0 1034.2 6.4 WNW 16.1 0.0
05:00 1.8 88.0 1034.3 4.8 WNW 8.0 0.0
05:05 1.6 88.0 1034.3 4.8 W 11.3 0.0
05:10 1.6 89.0 1034.2 0.0 WNW 11.3 0.0
05:15 1.8 89.0 1034.2 0.0 W 9.7 0.0
05:20 1.8 88.0 1034.2 0.0 WNW 9.7 0.0
05:25 1.8 88.0 1034.1 0.0 W 0.0 0.0
05:30 1.8 88.0 1034.1 4.8 WNW 11.3 0.0
05:35 1.8 88.0 1034.1 0.0 WNW 12.9 0.0
05:40 1.9 88.0 1034.1 0.0 WNW 12.9 0.0
05:45 2.0 88.0 1034.1 4.8 NW 6.4 0.0
05:50 1.9 87.0 1034.1 0.0 WNW 6.4 0.0
05:55 1.9 88.0 1034.1 0.0 WNW 3.2 0.0
06:00 1.7 87.0 1034.2 0.0 WNW 6.4 0.0
06:05 1.4 87.0 1034.3 6.4 WNW 6.4 0.0
06:10 1.3 89.0 1034.3 0.0 NW 8.0 0.0
06:15 1.5 89.0 1034.2 0.0 W 4.8 0.0
06:20 1.6 89.0 1034.3 0.0 WNW 0.0 0.0
06:25 1.5 88.0 1034.3 0.0 WNW 8.0 0.0
06:30 1.4 88.0 1034.3 1.6 WNW 4.8 0.0
06:35 1.4 89.0 1034.5 3.2 WNW 8.0 0.0
06:40 1.6 88.0 1034.5 4.8 WNW 14.5 0.0
06:45 1.7 88.0 1034.4 0.0 W 14.5 0.0
06:50 1.7 88.0 1034.4 6.4 WNW 9.7 0.0
06:55 1.6 88.0 1034.5 0.0 NW 8.0 0.0
07:00 1.5 89.0 1034.5 0.0 W 8.0 0.0
07:05 1.7 89.0 1034.6 0.0 WNW 1.6 0.0
07:10 1.8 88.0 1034.6 0.0 NW 1.6 0.0
07:15 2.1 87.0 1034.6 0.0 NW 0.0 0.0
07:20 2.3 87.0 1034.5 0.0 WNW 0.0 0.0
07:25 2.3 86.0 1034.5 0.0 NW 0.0 0.0
07:30 2.2 86.0 1034.5 0.0 WNW 0.0 0.0
07:35 2.2 87.0 1034.8 0.0 WSW 0.0 0.0
07:40 2.2 87.0 1034.9 0.0 NW 0.0 0.0
07:45 2.1 86.0 1034.9 0.0 WNW 3.2 0.0
07:50 1.8 86.0 1034.9 1.6 N 3.2 0.0
07:55 1.8 87.0 1035.0 0.0 N 4.8 0.0
08:00 1.9 88.0 1034.9 0.0 N 0.0 0.0
08:05 2.1 88.0 1034.9 0.0 N 0.0 0.0
08:10 2.2 88.0 1034.8 0.0 N 0.0 0.0
08:20 2.7 86.0 1034.9 0.0 N 6.4 0.0
08:25 2.9 85.0 1034.9 4.8 N 6.4 0.0
08:30 3.2 85.0 1034.8 0.0 N 6.4 0.0
08:35 3.7 85.0 1034.9 0.0 N 1.6 0.0
08:40 4.1 85.0 1035.1 0.0 N 0.0 0.0
08:45 4.4 85.0 1034.8 0.0 N 0.0 0.0
08:50 4.7 86.0 1035.0 0.0 N 0.0 0.0
08:55 5.3 85.0 1035.0 0.0 W 0.0 0.0
09:00 5.8 83.0 1035.2 0.0 SW 0.0 0.0
09:05 6.2 81.0 1035.3 0.0 N 0.0 0.0
09:10 6.6 79.0 1035.3 0.0 N 0.0 0.0
09:15 7.0 79.0 1035.5 0.0 N 0.0 0.0
09:20 7.3 78.0 1035.4 0.0 SSW 0.0 0.0
09:25 7.6 78.0 1035.4 0.0 SSW 0.0 0.0
09:30 7.9 77.0 1035.6 0.0 N 0.0 0.0
09:35 8.2 76.0 1035.6 0.0 S 0.0 0.0
09:40 8.6 75.0 1035.6 0.0 N 0.0 0.0
09:45 8.7 75.0 1035.6 0.0 ESE 0.0 0.0
09:50 8.8 76.0 1035.6 0.0 SSE 0.0 0.0
09:55 9.0 75.0 1035.7 0.0 N 1.6 0.0
10:00 9.2 75.0 1035.7 0.0 N 1.6 0.0
10:05 9.4 74.0 1035.7 0.0 N 4.8 0.0
10:10 9.4 74.0 1035.6 0.0 N 4.8 0.0
10:15 9.4 73.0 1035.6 0.0 N 1.6 0.0
10:20 9.5 74.0 1035.7 0.0 N 0.0 0.0
10:25 9.7 74.0 1035.6 0.0 N 0.0 0.0
10:30 9.8 73.0 1035.5 0.0 N 0.0 0.0
10:35 9.9 73.0 1035.5 0.0 N 0.0 0.0
10:40 10.1 73.0 1035.7 0.0 N 0.0 0.0
10:45 10.2 73.0 1035.7 0.0 N 0.0 0.0
10:50 10.4 74.0 1035.6 0.0 N 0.0 0.0
10:55 10.6 74.0 1035.5 0.0 N 0.0 0.0
11:00 10.7 74.0 1035.4 0.0 N 0.0 0.0
11:05 10.7 74.0 1035.5 0.0 N 0.0 0.0
11:10 10.7 74.0 1035.4 0.0 N 0.0 0.0
11:15 10.8 76.0 1035.6 0.0 SE 0.0 0.0
11:20 11.1 74.0 1035.3 0.0 SE 4.8 0.0
11:25 11.2 74.0 1035.2 0.0 N 4.8 0.0
11:30 11.3 73.0 1035.2 0.0 SSE 1.6 0.0
11:35 11.4 72.0 1035.1 0.0 N 1.6 0.0
11:40 11.5 72.0 1035.1 0.0 N 0.0 0.0
11:45 11.6 73.0 1035.1 0.0 N 0.0 0.0
11:50 11.7 72.0 1035.0 0.0 N 8.0 0.0
11:55 11.8 72.0 1034.9 0.0 N 8.0 0.0
12:00 11.8 71.0 1034.8 0.0 ENE 11.3 0.0
12:05 11.9 72.0 1034.8 0.0 E 11.3 0.0
12:10 11.9 73.0 1034.7 0.0 S 4.8 0.0
12:15 11.9 73.0 1034.7 0.0 E 4.8 0.0
12:20 12.1 73.0 1034.6 0.0 ESE 1.6 0.0
12:25 12.1 73.0 1034.5 0.0 E 1.6 0.0
12:30 12.1 73.0 1034.6 0.0 ESE 1.6 0.0
12:35 12.2 72.0 1034.6 0.0 ESE 0.0 0.0
12:40 12.2 72.0 1034.5 0.0 NNE 0.0 0.0
12:45 12.2 72.0 1034.4 0.0 ESE 14.5 0.0
12:50 12.3 72.0 1034.3 0.0 SE 14.5 0.0
12:55 12.4 72.0 1034.3 0.0 SE 3.2 0.0
13:00 12.6 72.0 1034.3 0.0 SSE 1.6 0.0
13:05 12.6 72.0 1034.2 0.0 N 6.4 0.0
13:10 12.7 72.0 1034.0 0.0 E 6.4 0.0
13:15 12.7 72.0 1034.0 0.0 SE 6.4 0.0
13:20 12.7 72.0 1033.9 0.0 S 1.6 0.0
13:25 12.7 72.0 1033.9 0.0 SE 0.0 0.0
13:30 12.7 72.0 1033.9 0.0 ESE 3.2 0.0
13:35 12.7 72.0 1033.9 1.6 E 12.9 0.0
13:40 12.7 73.0 1033.9 0.0 SE 12.9 0.0
13:45 12.7 73.0 1033.7 0.0 SE 11.3 0.0
13:50 12.7 73.0 1033.8 0.0 E 6.4 0.0
13:55 12.7 72.0 1033.6 0.0 SE 9.7 0.0
14:00 12.7 73.0 1033.7 0.0 NE 9.7 0.0
14:05 12.7 73.0 1033.7 0.0 NE 6.4 0.0
14:10 12.7 73.0 1033.7 0.0 ESE 3.2 0.0
14:15 12.7 72.0 1033.7 0.0 E 0.0 0.0
14:20 12.7 73.0 1033.6 0.0 SE 0.0 0.0
14:25 12.7 72.0 1033.6 0.0 SSE 1.6 0.0
14:30 12.7 73.0 1033.6 0.0 SSE 0.0 0.0
14:35 12.7 73.0 1033.6 0.0 E 0.0 0.0
14:40 12.8 73.0 1033.6 0.0 ESE 0.0 0.0
14:45 12.7 73.0 1033.6 0.0 SSE 1.6 0.0
14:50 12.8 74.0 1033.8 0.0 SE 1.6 0.0
14:55 12.8 74.0 1033.7 0.0 S 0.0 0.0
15:00 12.7 75.0 1033.6 8.0 N 9.7 0.0
15:05 12.7 76.0 1033.6 6.4 N 9.7 0.0
15:10 12.7 77.0 1033.6 0.0 N 14.5 0.0
15:15 12.5 78.0 1033.7 0.0 N 14.5 0.0
15:20 12.4 78.0 1033.8 0.0 N 3.2 0.0
15:25 12.3 79.0 1033.7 0.0 N 1.6 0.0
15:30 12.1 79.0 1033.6 0.0 N 12.9 0.0
15:35 11.9 80.0 1033.7 6.4 N 16.1 0.0
15:40 11.7 81.0 1033.7 0.0 N 16.1 0.0
15:45 11.6 81.0 1033.8 9.7 N 9.7 0.0
15:50 11.3 82.0 1033.8 0.0 N 12.9 0.0
15:55 11.1 82.0 1033.8 0.0 N 12.9 0.0
16:00 10.8 83.0 1033.9 0.0 N 3.2 0.0
16:05 10.6 84.0 1033.8 0.0 N 1.6 0.0
16:10 10.3 84.0 1033.9 0.0 N 1.6 0.0
16:15 10.1 85.0 1033.9 0.0 N 0.0 0.0
16:20 9.9 86.0 1034.0 0.0 N 0.0 0.0
16:25 9.8 86.0 1034.0 0.0 N 0.0 0.0
16:30 9.6 86.0 1034.0 0.0 N 0.0 0.0
16:35 9.4 86.0 1034.2 0.0 N 0.0 0.0
16:40 9.3 87.0 1034.2 0.0 N 0.0 0.0
16:45 9.1 87.0 1034.3 0.0 N 0.0 0.0
Màxima 12.8 95.0 1035.7 9.7 N 16.1 0.0
Mínima 0.2 71.0 1033.6
Total 0.0